Location: Camp Carl - Ravenna
(41.1174°N, 81.1001°W)
Time: 06:40:54
(UTC-04:00)

ISS - Visible Passes

Search period start: 22 September 2018 00:00
Search period end: 02 October 2018 00:00
Orbit: 403 x 408 km, 51.6° (Epoch: 22 September)

Date Brightness Start Highest point End Pass type
(mag) Time Alt. Az. Time Alt. Az. Time Alt. Az.
22 Sep -3.8 20:35:11 10° SW 20:38:26 61° SE 20:39:43 32° ENE visible
23 Sep -2.9 19:43:41 10° SSW 19:46:38 31° SE 19:49:36 10° ENE visible
23 Sep -2.3 21:20:05 10° W 21:23:07 33° NNW 21:23:07 33° NNW visible
24 Sep -3.2 20:27:53 10° WSW 20:31:06 55° NNW 20:33:35 16° NE visible
24 Sep -0.3 22:05:58 10° NW 22:06:17 11° NW 22:06:17 11° NW visible
25 Sep -1.6 21:13:25 10° WNW 21:16:00 21° NNW 21:16:37 20° N visible
26 Sep -2.0 20:20:57 10° W 20:23:52 28° NNW 20:26:48 10° NE visible
26 Sep -0.3 21:59:25 10° NW 21:59:31 10° NW 21:59:31 10° NW visible
27 Sep -1.3 21:06:53 10° NW 21:08:57 15° N 21:09:39 14° N visible
28 Sep -1.4 20:14:17 10° WNW 20:16:43 19° NNW 20:19:09 10° NNE visible
29 Sep -1.2 21:00:11 10° NW 21:01:54 13° N 21:02:23 13° N visible
30 Sep -1.2 20:07:41 10° NW 20:09:36 14° N 20:11:32 10° NNE visible
01 Oct -1.3 20:53:01 10° NNW 20:54:49 14° N 20:54:57 14° N visible
